Date String (YYYY-MM-DD hh:mm:ss) UTC,Instrument flags,absolute air pressure of the measurement (hPa),sample flow rate (lpm),inlet stack bypass flow (lpm),air temperature of the measurement (°C),ambient temperature measured by the external sensor (°C),aerosol sample conditioner tube jacket temperature (°C),OPC LED temperature (°C),internal box temperature (°C),relative humidity of the measurement (%),span deviation,mass concentration of particles derived from Lorenz-Mie calculation of OPC scattering (μg/m³),mass concentration of particles derived from Lorenz-Mie calculation of OPC scattering (μg/m³),mass concentration of particles derived from Lorenz-Mie calculation of OPC scattering (μg/m³)
DateTimeUTC,F1_M11,P_M11,Q1_M11,Q2_M11,T1_M11,T2_M11,T3_M11,T4_M11,T5_M11,U1_M11,ZSPAN_M11,X0_M11,X2_M11,X1_M11
2024-04-14 03:00:00,SystemResetWarning,0828.0,5.00,000.00,025.2,024.5,000.0,033.3,027.1,012.3,0000.0,0015.18,0004.23,0002.62
2024-04-14 03:01:00,SystemResetWarning,0828.1,5.01,000.00,025.2,024.6,000.0,033.3,027.2,012.3,0000.0,0015.39,0004.19,0002.59
2024-04-14 03:02:00,SystemResetWarning,0828.1,5.00,000.00,025.3,024.7,000.0,033.4,027.2,012.3,0000.0,0015.27,0004.22,0002.58
2024-04-14 03:03:00,SystemResetWarning,0828.1,5.00,000.00,025.3,024.8,000.0,033.4,027.3,012.1,0000.0,0014.90,0004.20,0002.57
2024-04-14 03:04:00,SystemResetWarning,0828.1,5.00,000.00,025.4,024.9,000.0,033.4,027.3,012.1,0000.0,0015.59,0004.19,0002.57
2024-04-14 03:05:00,SystemResetWarning,0828.1,5.00,000.00,025.4,025.0,000.0,033.5,027.4,012.1,0000.0,0014.72,0004.17,0002.58
2024-04-14 03:06:00,SystemResetWarning,0828.2,4.99,000.00,025.5,025.1,000.0,033.5,027.4,012.1,0000.0,0014.51,0004.13,0002.57
2024-04-14 03:07:00,SystemResetWarning,0828.2,4.99,000.00,025.6,025.1,000.0,033.6,027.5,012.0,0000.0,0014.16,0004.17,0002.58
2024-04-14 03:08:00,SystemResetWarning,0828.2,5.00,000.00,025.6,025.2,000.0,033.6,027.6,012.1,0000.0,0015.03,0004.16,0002.59
2024-04-14 03:09:00,SystemResetWarning,0828.2,5.00,000.00,025.7,025.2,000.0,033.7,027.5,012.1,0000.0,0015.91,0004.12,0002.59
2024-04-14 03:10:00,SystemResetWarning,0828.2,5.00,000.00,025.5,023.4,000.0,033.7,026.6,012.1,0000.0,0016.80,0004.06,0002.57
2024-04-14 03:11:00,SystemResetWarning,0828.2,5.01,000.00,025.0,022.1,000.0,033.7,025.7,012.5,0000.0,0018.39,0004.04,0002.58
2024-04-14 03:12:00,SystemResetWarning,0828.2,5.01,000.00,024.8,022.2,000.0,033.7,025.6,012.7,0000.0,0019.51,0004.07,0002.60
2024-04-14 03:13:00,SystemResetWarning,0828.2,5.00,000.00,024.8,022.5,000.0,033.5,025.9,012.8,0000.0,0019.12,0004.06,0002.63
2024-04-14 03:14:00,SystemResetWarning,0828.2,4.99,000.00,024.8,022.9,000.0,033.4,026.2,012.8,0000.0,0019.16,0004.09,0002.65
2024-04-14 03:15:00,SystemResetWarning,0828.3,5.00,000.00,024.8,023.2,000.0,033.4,026.4,012.7,0000.0,0019.35,0004.12,0002.67
2024-04-14 03:16:00,SystemResetWarning,0828.3,5.01,000.00,024.9,023.5,000.0,033.4,026.6,012.6,0000.0,0019.52,0004.16,0002.69
2024-04-14 03:17:00,SystemResetWarning,0828.3,5.00,000.00,024.9,023.7,000.0,033.3,026.7,012.6,0000.0,0020.02,0004.20,0002.69
2024-04-14 03:18:00,SystemResetWarning,0828.4,5.01,000.00,025.0,023.9,000.0,033.3,026.8,012.6,0000.0,0020.27,0004.20,0002.71
2024-04-14 03:19:00,SystemResetWarning,0828.4,5.00,000.00,025.1,024.1,000.0,033.3,026.9,012.5,0000.0,0019.70,0004.24,0002.71
2024-04-14 03:20:00,SystemResetWarning,0828.4,4.99,000.00,025.1,024.3,000.0,033.4,027.0,012.5,0000.0,0019.11,0004.26,0002.73
2024-04-14 03:21:00,SystemResetWarning,0828.4,5.00,000.00,025.2,024.4,000.0,033.4,027.1,012.5,0000.0,0019.05,0004.30,0002.74
2024-04-14 03:22:00,SystemResetWarning,0828.4,5.00,000.00,025.2,024.6,000.0,033.4,027.1,012.5,0000.0,0017.60,0004.35,0002.74
2024-04-14 03:23:00,SystemResetWarning,0828.4,5.00,000.00,025.3,024.7,000.0,033.4,027.2,012.5,0000.0,0017.01,0004.39,0002.75
2024-04-14 03:24:00,SystemResetWarning,0828.4,5.00,000.00,025.3,024.8,000.0,033.5,027.3,012.5,0000.0,0018.09,0004.39,0002.75
2024-04-14 03:25:00,SystemResetWarning,0828.4,5.00,000.00,025.4,024.9,000.0,033.5,027.3,012.5,0000.0,0018.66,0004.40,0002.74
2024-04-14 03:26:00,SystemResetWarning,0828.4,5.01,000.00,025.5,025.0,000.0,033.5,027.4,012.5,0000.0,0019.25,0004.48,0002.75
2024-04-14 03:27:00,SystemResetWarning,0828.4,5.00,000.00,025.5,025.0,000.0,033.6,027.4,012.4,0000.0,0019.49,0004.46,0002.74
2024-04-14 03:28:00,SystemResetWarning,0828.4,5.01,000.00,025.6,025.1,000.0,033.6,027.5,012.4,0000.0,0019.69,0004.48,0002.76
2024-04-14 03:29:00,SystemResetWarning,0828.4,5.00,000.00,025.6,025.1,000.0,033.7,027.5,012.3,0000.0,0020.07,0004.52,0002.77
2024-04-14 03:30:00,SystemResetWarning,0828.4,4.98,000.00,025.7,025.2,000.0,033.7,027.6,012.3,0000.0,0019.97,0004.51,0002.78
2024-04-14 03:31:00,SystemResetWarning,0828.4,5.00,000.00,025.7,025.2,000.0,033.7,027.6,012.2,0000.0,0019.28,0004.55,0002.78
2024-04-14 03:32:00,SystemResetWarning,0828.4,5.01,000.00,025.7,025.1,000.0,033.8,027.6,012.2,0000.0,0017.79,0004.54,0002.78
2024-04-14 03:33:00,SystemResetWarning,0828.4,4.99,000.00,025.5,023.2,000.0,033.8,026.5,012.4,0000.0,0017.68,0004.50,0002.77
2024-04-14 03:34:00,SystemResetWarning,0828.4,5.01,000.00,025.1,022.0,000.0,033.8,025.7,012.6,0000.0,0017.98,0004.48,0002.75
2024-04-14 03:35:00,SystemResetWarning,0828.4,5.01,000.00,024.9,022.1,000.0,033.7,025.6,012.8,0000.0,0018.27,0004.51,0002.76
2024-04-14 03:36:00,SystemResetWarning,0828.4,4.99,000.00,024.8,022.5,000.0,033.6,025.9,012.9,0000.0,0017.77,0004.50,0002.77
2024-04-14 03:37:00,SystemResetWarning,0828.4,5.00,000.00,024.8,022.8,000.0,033.5,026.2,012.9,0000.0,0016.89,0004.47,0002.78
2024-04-14 03:38:00,SystemResetWarning,0828.4,5.00,000.00,024.8,023.1,000.0,033.4,026.4,012.8,0000.0,0016.05,0004.47,0002.78
2024-04-14 03:39:00,SystemResetWarning,0828.4,5.01,000.00,024.9,023.4,000.0,033.4,026.6,012.7,0000.0,0015.83,0004.45,0002.78
2024-04-14 03:40:00,SystemResetWarning,0828.4,5.00,000.00,024.9,023.7,000.0,033.4,026.7,012.7,0000.0,0015.18,0004.38,0002.76
2024-04-14 03:41:00,SystemResetWarning,0828.4,5.00,000.00,025.0,023.9,000.0,033.4,026.8,012.7,0000.0,0015.32,0004.34,0002.74
2024-04-14 03:42:00,SystemResetWarning,0828.4,5.00,000.00,025.0,024.0,000.0,033.4,026.9,012.7,0000.0,0016.23,0004.31,0002.72
2024-04-14 03:43:00,SystemResetWarning,0828.4,5.00,000.00,025.1,024.2,000.0,033.4,026.9,012.6,0000.0,0016.68,0004.27,0002.72
2024-04-14 03:44:00,SystemResetWarning,0828.4,5.00,000.00,025.1,024.3,000.0,033.4,027.0,012.7,0000.0,0016.72,0004.28,0002.74
2024-04-14 03:45:00,SystemResetWarning,0828.4,4.99,000.00,025.2,024.4,000.0,033.4,027.1,012.7,0000.0,0015.35,0004.31,0002.75
2024-04-14 03:46:00,SystemResetWarning,0828.4,4.99,000.00,025.2,024.5,000.0,033.4,027.1,012.7,0000.0,0014.48,0004.29,0002.76
2024-04-14 03:47:00,SystemResetWarning,0828.4,5.00,000.00,025.3,024.6,000.0,033.5,027.2,012.6,0000.0,0014.00,0004.28,0002.75
2024-04-14 03:48:00,SystemResetWarning,0828.4,5.00,000.00,025.3,024.7,000.0,033.5,027.2,012.6,0000.0,0013.63,0004.25,0002.73
2024-04-14 03:49:00,SystemResetWarning,0828.4,5.00,000.00,025.4,024.7,000.0,033.5,027.3,012.6,0000.0,0014.49,0004.20,0002.72
2024-04-14 03:50:00,SystemResetWarning,0828.4,5.00,000.00,025.4,024.8,000.0,033.5,027.3,012.6,0000.0,0014.38,0004.23,0002.73
2024-04-14 03:51:00,SystemResetWarning,0828.4,4.99,000.00,025.4,024.8,000.0,033.6,027.3,012.5,0000.0,0014.67,0004.26,0002.76
2024-04-14 03:52:00,SystemResetWarning,0828.4,5.00,000.00,025.5,024.9,000.0,033.6,027.4,012.5,0000.0,0014.77,0004.27,0002.77
2024-04-14 03:53:00,SystemResetWarning,0828.5,5.01,000.00,025.5,024.9,000.0,033.6,027.4,012.5,0000.0,0014.23,0004.29,0002.80
2024-04-14 03:54:00,SystemResetWarning,0828.5,5.01,000.00,025.5,025.0,000.0,033.7,027.4,012.5,0000.0,0015.38,0004.36,0002.81
2024-04-14 03:55:00,SystemResetWarning,0828.5,5.00,000.00,025.6,025.0,000.0,033.7,027.5,012.5,0000.0,0015.53,0004.38,0002.80
2024-04-14 03:56:00,SystemResetWarning,0828.5,5.00,000.00,025.6,025.0,000.0,033.7,027.5,012.5,0000.0,0016.64,0004.34,0002.80
2024-04-14 03:57:00,SystemResetWarning,0828.5,4.99,000.00,025.6,025.1,000.0,033.7,027.5,012.4,0000.0,0017.00,0004.32,0002.79
2024-04-14 03:58:00,SystemResetWarning,0828.4,4.99,000.00,025.7,025.1,000.0,033.8,027.6,012.4,0000.0,0017.58,0004.36,0002.78
2024-04-14 03:59:00,SystemResetWarning,0828.4,5.01,000.00,025.7,025.1,000.0,033.8,027.6,012.4,0000.0,0017.48,0004.37,0002.79
